Other Public Products
Issued by NWS Charleston, SC

Current Version | Previous Version | Text Only | Print | Product List | Glossary Off
Versions: 1 2 3 4 5 6 7 8 9 10 11 12 13 14 15 16 17 18 19 20 21 22 23 24 25 26 27 28 29 30 31 32 33 34 35 36 37 38 39 40 41 42 43 44 45 46 47 48 49 50

000
FPUS82 KCHS 260812
OPUCHS

TEST...KCHS/KSAV Gateway Observations...TEST
National Weather Service Charleston SC
400 AM EDT WED JUL 26 2017

NOTE: "fair" indicates few or no clouds below 12,000 feet with no
significant weather and/or obstructions to visibility.

SCZ050-WAZ558-NCZ071-TXZ119-213-PAZ071-DCZ001-FLZ074-172-MI076-
NYZ176-178-MAZ016-IL014-TNZ027-NJZ106-GAZ044-MD014-260900-

...Gateway Observations for Charleston International...

CITY           SKY/WX    TMP DP  RH WIND       PRES   REMARKS
Chas Airport   MOCLDY    75  72  90 CALM      30.05S
Seattle        CLEAR     67  52  58 NW5       30.03R
Charlotte      MOCLDY    80  70  71 E6        30.11S
Dallas DFW     CLEAR     84  71  65 S10       30.03S
Dallas Love    CLEAR     84  70  62 S13       30.04F
Philladelphia  CLOUDY    67  62  84 NE5       30.20F
Wash National  PTCLDY    71  63  75 NE9       30.19S
Baltimore      PTCLDY    63  62  97 CALM      30.18S
Miami          PTCLDY    83  76  79 E6        30.07F HX  91
Detroit        MOCLDY    64  60  87 CALM      30.20S
Newark         CLOUDY    67  57  70 NE6       30.20F
Laguardia      CLOUDY    67  59  75 NE6       30.20F
J F K          CLOUDY    65  60  84 NE7       30.21F
Boston Logan   CLEAR     60  56  86 W6        30.20S
Ft. Lauderdale PTCLDY    84  77  79 SE9       30.06F HX  94
Chicago O`Hare CLOUDY    68  59  73 S6        30.11F
Chicago Midway CLOUDY    70  59  68 S8        30.11F
Houston Bush   MOCLDY    78  74  87 E6        30.05F
Houston Hobby  CLOUDY    81  73  76 CALM      30.05F
Nashville      CLEAR     78  74  87 CALM      30.09F
Atlanta        PTCLDY    76  74  93 CALM      30.11R

$$

GAZ044-118-TXZ119-213-NCZ071-DCZ001-MDZ014-506-PAZ021-071-NJZ106-
NYZ176-178-MAZ106-OHZ011-021-055-MIZ076-KYZ091-ILZ014-INZ047-
MNZ060-ONZ431-260900-

...Gateway Observations for Savannah International...

CITY           SKY/WX    TMP DP  RH WIND       PRES   REMARKS
Savannah Arpt  CLOUDY   N/A N/A N/A SW8       30.07S
Atlanta        PTCLDY    76  74  93 CALM      30.11R
Charlotte      MOCLDY    80  70  71 E6        30.11S
Dallas DFW     CLEAR     84  71  65 S10       30.03S
Houston Bush   MOCLDY    78  74  87 E6        30.05F
Wash National  PTCLDY    71  63  75 NE9       30.19S
Wash Dulles    PTCLDY    62  59  90 W3        30.20R
Baltimore      PTCLDY    63  62  97 CALM      30.18S
Philadelphia   CLOUDY    67  62  84 NE5       30.20F
Newark         CLOUDY    67  57  70 NE6       30.20F
Laguardia      CLOUDY    67  59  75 NE6       30.20F
J F K          CLOUDY    65  60  84 NE7       30.21F
Boston         CLEAR     60  56  86 W6        30.20S
Pittsburg      CLEAR     60  59  96 CALM      30.18F
Akron          CLEAR     59  55  87 E3        30.19F
Cleveland      CLEAR     60  55  83 CALM      30.20F
Cincinnati     CLEAR     64  61  90 SE8       30.15F
Columbus       CLEAR     58  58 100 CALM      30.17S
Detroit        MOCLDY    64  60  87 CALM      30.20S
Chicago O`Hare CLOUDY    68  59  73 S6        30.11F
Minneapolis    CLOUDY    76  73  91 SE6       29.95F FOG
Indianapolis   CLEAR     66  61  84 SE9       30.15R
Toronto Canada CLEAR     59  52  77 W5        30.21S

$$




USA.gov is the U.S. government's official web portal to all federal, state and local government web resources and services.